Regional Weather Roundup
Issued by NWS

Home | Current Version | Previous Version | Text Only | Print | Product List | Glossary On
Versions: 1 2 3 4 5 6 7 8 9 10 11 12 13 14 15 16 17 18 19 20 21 22 23 24 25 26 27 28 29 30 31 32 33 34 35 36 37 38 39 40 41 42 43 44 45 46 47 48 49 50
000
ASUS45 KCYS 221310
RWRWY

WYOMING REGIONAL WEATHER ROUNDUP
NATIONAL WEATHER SERVICE CHEYENNE WY
700 AM MDT SAT JUL 22 2017

NOTE:  "FAIR" INDICATES FEW OR NO CLOUDS BELOW 12,000 FEET
WITH NO SIGNIFICANT WEATHER AND/OR OBSTRUCTIONS TO VISIBILITY.

WYZ001-221400-
YELLOWSTONE NATIONAL PARK

CITY           SKY/WX    TMP DP  RH WIND       PRES   REMARKS
LK YELLOWSTONE   N/A     38  36  92 CALM      30.41R
W YELLOWSTONE  NOT AVBL

$$
WYZ002>013-054>058-071-098>099-221400-
NORTHERN WYOMING

CITY           SKY/WX    TMP DP  RH WIND       PRES   REMARKS
JACKSON        CLEAR     39  36  87 NE3       30.33S
CODY           NOT AVBL
GREYBULL       FAIR      59  40  49 SE5       30.12R
WORLAND        FAIR      61  37  41 S3        30.14R
SHERIDAN       FAIR      58  43  57 CALM      30.16R
BUFFALO        FAIR      65  34  31 W10       30.20R
GILLETTE       FAIR      60  39  45 NW3       30.12S
HULETT         FAIR      59  43  55 CALM      30.13R
NEWCASTLE      FAIR      63  50  63 CALM      30.11R

$$
WYZ014>020-022>026-101>103-221400-
CENTRAL WYOMING

CITY           SKY/WX    TMP DP  RH WIND       PRES   REMARKS
BIG PINEY      FAIR      45  37  73 NE6       30.35R
PINEDALE       FAIR      43  36  75 NW5       30.35S
DUBOIS         FAIR      46  30  53 NW12      30.35R
LANDER         FAIR      62  32  32 CALM      30.24R
RIVERTON       FAIR      60  34  37 NW9       30.22R
CASPER         FAIR      63  49  60 W7        30.19R
DOUGLAS        FAIR      60  55  83 W3        30.15R

$$
WYZ021-027>030-104>119-221400-
SOUTHERN WYOMING

CITY           SKY/WX    TMP DP  RH WIND       PRES   REMARKS
EVANSTON       FAIR      59  41  51 SE3       30.33R
KEMMERER         N/A     50  32  50 N10       30.35R
FORT BRIDGER   FAIR      60  37  41 S5        30.34S
ROCK SPRINGS   FAIR      56  48  74 W3        30.31R
RAWLINS        FAIR      53  46  77 CALM      30.31R
SARATOGA       FAIR      54  50  87 CALM      30.34R
LARAMIE        FAIR      54  51  90 S3        30.31R
CHEYENNE       FAIR      64  49  57 W6        30.21R
TORRINGTON     FAIR      65  58  78 NW6       30.06R
PINE BLUFFS    FAIR      61  52  72 NW5       30.13R

$$



USA.gov is the U.S. government's official web portal to all federal, state and local government web resources and services.